owner,sensor,date,latitude,longitude,air_pressure(mBar),qcFlag 
WAVCIS,ioos:station:WAVCIS:CSI03:1,2011-12-01T00:00:00Z,29.4412,-92.0613,1018.97,11111222 
WAVCIS,ioos:station:WAVCIS:CSI03:1,2011-12-01T01:00:00Z,29.4412,-92.0613,1019.43,11111222 
WAVCIS,ioos:station:WAVCIS:CSI03:1,2011-12-01T02:00:00Z,29.4412,-92.0613,1019.57,11111222 
WAVCIS,ioos:station:WAVCIS:CSI03:1,2011-12-01T03:00:00Z,29.4412,-92.0613,1019.65,11111222 
WAVCIS,ioos:station:WAVCIS:CSI03:1,2011-12-01T04:00:00Z,29.4412,-92.0613,1019.7,11111222 
WAVCIS,ioos:station:WAVCIS:CSI03:1,2011-12-01T05:00:00Z,29.4412,-92.0613,1019.85,11111222 
WAVCIS,ioos:station:WAVCIS:CSI03:1,2011-12-01T06:00:00Z,29.4412,-92.0613,1019.64,11111222 
WAVCIS,ioos:station:WAVCIS:CSI03:1,2011-12-01T07:00:00Z,29.4412,-92.0613,1019.41,11111222 
WAVCIS,ioos:station:WAVCIS:CSI03:1,2011-12-01T08:00:00Z,29.4412,-92.0613,1019.47,11111222 
WAVCIS,ioos:station:WAVCIS:CSI03:1,2011-12-01T09:00:00Z,29.4412,-92.0613,1019.46,11111222 
WAVCIS,ioos:station:WAVCIS:CSI03:1,2011-12-01T10:00:00Z,29.4412,-92.0613,1019.65,11111222 
WAVCIS,ioos:station:WAVCIS:CSI03:1,2011-12-01T11:00:00Z,29.4412,-92.0613,1020.01,11111222 
WAVCIS,ioos:station:WAVCIS:CSI03:1,2011-12-01T12:00:00Z,29.4412,-92.0613,1020.31,11111222 
WAVCIS,ioos:station:WAVCIS:CSI03:1,2011-12-01T13:00:00Z,29.4412,-92.0613,1021.22,11111222 
WAVCIS,ioos:station:WAVCIS:CSI03:1,2011-12-01T14:00:00Z,29.4412,-92.0613,1021.79,11111222 
WAVCIS,ioos:station:WAVCIS:CSI03:1,2011-12-01T15:00:00Z,29.4412,-92.0613,1022.33,11111222 
WAVCIS,ioos:station:WAVCIS:CSI03:1,2011-12-01T16:00:00Z,29.4412,-92.0613,1022.85,11111222 
WAVCIS,ioos:station:WAVCIS:CSI03:1,2011-12-01T17:00:00Z,29.4412,-92.0613,1023.02,11111222 
WAVCIS,ioos:station:WAVCIS:CSI03:1,2011-12-01T18:00:00Z,29.4412,-92.0613,1022.73,11111222 
WAVCIS,ioos:station:WAVCIS:CSI03:1,2011-12-01T19:00:00Z,29.4412,-92.0613,1022.07,11111222 
WAVCIS,ioos:station:WAVCIS:CSI03:1,2011-12-01T20:00:00Z,29.4412,-92.0613,1021.28,11111222 
WAVCIS,ioos:station:WAVCIS:CSI03:1,2011-12-01T21:00:00Z,29.4412,-92.0613,1021.77,11111222 
WAVCIS,ioos:station:WAVCIS:CSI03:1,2011-12-01T22:00:00Z,29.4412,-92.0613,1022.02,11111222 
WAVCIS,ioos:station:WAVCIS:CSI03:1,2011-12-01T23:00:00Z,29.4412,-92.0613,1021.74,11111222 
WAVCIS,ioos:station:WAVCIS:CSI03:1,2011-12-02T00:00:00Z,29.4412,-92.0613,1021.8,11111222 
WAVCIS,ioos:station:WAVCIS:CSI03:1,2011-12-02T01:00:00Z,29.4412,-92.0613,1022.52,11111222 
WAVCIS,ioos:station:WAVCIS:CSI03:1,2011-12-02T02:00:00Z,29.4412,-92.0613,1023.72,11111222 
WAVCIS,ioos:station:WAVCIS:CSI03:1,2011-12-02T03:00:00Z,29.4412,-92.0613,1023.85,11111222 
WAVCIS,ioos:station:WAVCIS:CSI03:1,2011-12-02T04:00:00Z,29.4412,-92.0613,1024.57,11111222 
WAVCIS,ioos:station:WAVCIS:CSI03:1,2011-12-02T05:00:00Z,29.4412,-92.0613,1024.5,11111222 
WAVCIS,ioos:station:WAVCIS:CSI03:1,2011-12-02T06:00:00Z,29.4412,-92.0613,1024.09,11111222 
WAVCIS,ioos:station:WAVCIS:CSI03:1,2011-12-02T07:00:00Z,29.4412,-92.0613,1023.95,11111222 
WAVCIS,ioos:station:WAVCIS:CSI03:1,2011-12-02T08:00:00Z,29.4412,-92.0613,1023.88,11111222 
WAVCIS,ioos:station:WAVCIS:CSI03:1,2011-12-02T09:00:00Z,29.4412,-92.0613,1023.78,11111222 
WAVCIS,ioos:station:WAVCIS:CSI03:1,2011-12-02T10:00:00Z,29.4412,-92.0613,1024.14,11111222 
WAVCIS,ioos:station:WAVCIS:CSI03:1,2011-12-02T11:00:00Z,29.4412,-92.0613,1024.22,11111222 
WAVCIS,ioos:station:WAVCIS:CSI03:1,2011-12-02T12:00:00Z,29.4412,-92.0613,1024.82,11111222 
WAVCIS,ioos:station:WAVCIS:CSI03:1,2011-12-02T13:00:00Z,29.4412,-92.0613,1025.28,11111222 
WAVCIS,ioos:station:WAVCIS:CSI03:1,2011-12-02T14:00:00Z,29.4412,-92.0613,1025.43,11111222 
WAVCIS,ioos:station:WAVCIS:CSI03:1,2011-12-02T15:00:00Z,29.4412,-92.0613,1025.94,11111222 
WAVCIS,ioos:station:WAVCIS:CSI03:1,2011-12-02T16:00:00Z,29.4412,-92.0613,1026.17,11111222 
WAVCIS,ioos:station:WAVCIS:CSI03:1,2011-12-02T17:00:00Z,29.4412,-92.0613,1025.53,11111222 
WAVCIS,ioos:station:WAVCIS:CSI03:1,2011-12-02T18:00:00Z,29.4412,-92.0613,1024.48,11111222 
WAVCIS,ioos:station:WAVCIS:CSI03:1,2011-12-02T19:00:00Z,29.4412,-92.0613,1023.95,11111222 
WAVCIS,ioos:station:WAVCIS:CSI03:1,2011-12-02T20:00:00Z,29.4412,-92.0613,1023.53,11111222 
WAVCIS,ioos:station:WAVCIS:CSI03:1,2011-12-02T21:00:00Z,29.4412,-92.0613,1023.07,11111222 
WAVCIS,ioos:station:WAVCIS:CSI03:1,2011-12-02T22:00:00Z,29.4412,-92.0613,1022.87,11111222 
WAVCIS,ioos:station:WAVCIS:CSI03:1,2011-12-02T23:00:00Z,29.4412,-92.0613,1022.8,11111222 
WAVCIS,ioos:station:WAVCIS:CSI03:1,2011-12-03T00:00:00Z,29.4412,-92.0613,1022.93,11111222 
WAVCIS,ioos:station:WAVCIS:CSI03:1,2011-12-03T01:00:00Z,29.4412,-92.0613,1023.2,11111222 
WAVCIS,ioos:station:WAVCIS:CSI03:1,2011-12-03T02:00:00Z,29.4412,-92.0613,1023.85,11111222 
WAVCIS,ioos:station:WAVCIS:CSI03:1,2011-12-03T03:00:00Z,29.4412,-92.0613,1023.91,11111222 
WAVCIS,ioos:station:WAVCIS:CSI03:1,2011-12-03T04:00:00Z,29.4412,-92.0613,1023.29,11111222 
WAVCIS,ioos:station:WAVCIS:CSI03:1,2011-12-03T05:00:00Z,29.4412,-92.0613,1022.42,11111222 
WAVCIS,ioos:station:WAVCIS:CSI03:1,2011-12-03T06:00:00Z,29.4412,-92.0613,1021.64,11111222 
WAVCIS,ioos:station:WAVCIS:CSI03:1,2011-12-03T07:00:00Z,29.4412,-92.0613,1021.01,11111222 
WAVCIS,ioos:station:WAVCIS:CSI03:1,2011-12-03T08:00:00Z,29.4412,-92.0613,1020.61,11111222 
WAVCIS,ioos:station:WAVCIS:CSI03:1,2011-12-03T09:00:00Z,29.4412,-92.0613,1019.96,11111222 
WAVCIS,ioos:station:WAVCIS:CSI03:1,2011-12-03T10:00:00Z,29.4412,-92.0613,1019.33,11111222 
WAVCIS,ioos:station:WAVCIS:CSI03:1,2011-12-03T11:00:00Z,29.4412,-92.0613,1019.39,11111222 
WAVCIS,ioos:station:WAVCIS:CSI03:1,2011-12-03T12:00:00Z,29.4412,-92.0613,1019.08,11111222 
WAVCIS,ioos:station:WAVCIS:CSI03:1,2011-12-03T13:00:00Z,29.4412,-92.0613,1019.61,11111222 
WAVCIS,ioos:station:WAVCIS:CSI03:1,2011-12-03T14:00:00Z,29.4412,-92.0613,1019.73,11111222 
WAVCIS,ioos:station:WAVCIS:CSI03:1,2011-12-03T15:00:00Z,29.4412,-92.0613,1019.65,11111222 
WAVCIS,ioos:station:WAVCIS:CSI03:1,2011-12-03T16:00:00Z,29.4412,-92.0613,1020.62,11111222 
WAVCIS,ioos:station:WAVCIS:CSI03:1,2011-12-03T17:00:00Z,29.4412,-92.0613,1020.12,11111222 
WAVCIS,ioos:station:WAVCIS:CSI03:1,2011-12-03T18:00:00Z,29.4412,-92.0613,1019.54,11111222 
WAVCIS,ioos:station:WAVCIS:CSI03:1,2011-12-03T19:00:00Z,29.4412,-92.0613,1018.3,11111222 
WAVCIS,ioos:station:WAVCIS:CSI03:1,2011-12-03T20:00:00Z,29.4412,-92.0613,1017.99,11111222 
WAVCIS,ioos:station:WAVCIS:CSI03:1,2011-12-03T21:00:00Z,29.4412,-92.0613,1017.78,11111222 
WAVCIS,ioos:station:WAVCIS:CSI03:1,2011-12-03T22:00:00Z,29.4412,-92.0613,1017.99,11111222 
WAVCIS,ioos:station:WAVCIS:CSI03:1,2011-12-03T23:00:00Z,29.4412,-92.0613,1017.96,11111222 
WAVCIS,ioos:station:WAVCIS:CSI03:1,2011-12-04T00:00:00Z,29.4412,-92.0613,1018.27,11111222 
WAVCIS,ioos:station:WAVCIS:CSI03:1,2011-12-04T01:00:00Z,29.4412,-92.0613,1018.35,11111222 
WAVCIS,ioos:station:WAVCIS:CSI03:1,2011-12-04T02:00:00Z,29.4412,-92.0613,1017.89,11111222 
WAVCIS,ioos:station:WAVCIS:CSI03:1,2011-12-04T03:00:00Z,29.4412,-92.0613,1017.84,11111222 
WAVCIS,ioos:station:WAVCIS:CSI03:1,2011-12-04T04:00:00Z,29.4412,-92.0613,1017.79,11111222 
WAVCIS,ioos:station:WAVCIS:CSI03:1,2011-12-04T05:00:00Z,29.4412,-92.0613,1018.09,11111222 
WAVCIS,ioos:station:WAVCIS:CSI03:1,2011-12-04T06:00:00Z,29.4412,-92.0613,1017.67,11111222 
WAVCIS,ioos:station:WAVCIS:CSI03:1,2011-12-04T07:00:00Z,29.4412,-92.0613,1017.38,11111222 
WAVCIS,ioos:station:WAVCIS:CSI03:1,2011-12-04T08:00:00Z,29.4412,-92.0613,1017.2,11111222 
WAVCIS,ioos:station:WAVCIS:CSI03:1,2011-12-04T09:00:00Z,29.4412,-92.0613,1016.56,11111222 
WAVCIS,ioos:station:WAVCIS:CSI03:1,2011-12-04T10:00:00Z,29.4412,-92.0613,1016.13,11111222 
WAVCIS,ioos:station:WAVCIS:CSI03:1,2011-12-04T11:00:00Z,29.4412,-92.0613,1015.73,11111222 
WAVCIS,ioos:station:WAVCIS:CSI03:1,2011-12-04T12:00:00Z,29.4412,-92.0613,1015.31,11111222 
WAVCIS,ioos:station:WAVCIS:CSI03:1,2011-12-04T13:00:00Z,29.4412,-92.0613,1015.99,11111222 
WAVCIS,ioos:station:WAVCIS:CSI03:1,2011-12-04T14:00:00Z,29.4412,-92.0613,1016.09,11111222 
WAVCIS,ioos:station:WAVCIS:CSI03:1,2011-12-04T15:00:00Z,29.4412,-92.0613,1016.97,11111222 
WAVCIS,ioos:station:WAVCIS:CSI03:1,2011-12-04T16:00:00Z,29.4412,-92.0613,1016.65,11111222 
WAVCIS,ioos:station:WAVCIS:CSI03:1,2011-12-04T17:00:00Z,29.4412,-92.0613,1016.14,11111222 
WAVCIS,ioos:station:WAVCIS:CSI03:1,2011-12-04T18:00:00Z,29.4412,-92.0613,1015.43,11111222 
WAVCIS,ioos:station:WAVCIS:CSI03:1,2011-12-04T19:00:00Z,29.4412,-92.0613,1014.49,11111222 
WAVCIS,ioos:station:WAVCIS:CSI03:1,2011-12-04T20:00:00Z,29.4412,-92.0613,1013.56,11111222 
WAVCIS,ioos:station:WAVCIS:CSI03:1,2011-12-04T21:00:00Z,29.4412,-92.0613,1014.22,11111222 
WAVCIS,ioos:station:WAVCIS:CSI03:1,2011-12-04T22:00:00Z,29.4412,-92.0613,1013.8,11111222 
WAVCIS,ioos:station:WAVCIS:CSI03:1,2011-12-04T23:00:00Z,29.4412,-92.0613,1013.2,11111222 
WAVCIS,ioos:station:WAVCIS:CSI03:1,2011-12-05T00:00:00Z,29.4412,-92.0613,1013.55,11111222 
WAVCIS,ioos:station:WAVCIS:CSI03:1,2011-12-05T01:00:00Z,29.4412,-92.0613,1013.79,11111222 
WAVCIS,ioos:station:WAVCIS:CSI03:1,2011-12-05T02:00:00Z,29.4412,-92.0613,1013.37,11111222 
WAVCIS,ioos:station:WAVCIS:CSI03:1,2011-12-05T03:00:00Z,29.4412,-92.0613,1013.4,11111222 
WAVCIS,ioos:station:WAVCIS:CSI03:1,2011-12-05T04:00:00Z,29.4412,-92.0613,1014.1,11111222 
WAVCIS,ioos:station:WAVCIS:CSI03:1,2011-12-05T05:00:00Z,29.4412,-92.0613,1013.65,11111222 
WAVCIS,ioos:station:WAVCIS:CSI03:1,2011-12-05T06:00:00Z,29.4412,-92.0613,1012.83,11111222 
WAVCIS,ioos:station:WAVCIS:CSI03:1,2011-12-05T07:00:00Z,29.4412,-92.0613,1012.21,11111222 
WAVCIS,ioos:station:WAVCIS:CSI03:1,2011-12-05T08:00:00Z,29.4412,-92.0613,1011.71,11111222 
WAVCIS,ioos:station:WAVCIS:CSI03:1,2011-12-05T09:00:00Z,29.4412,-92.0613,1010.91,11111222 
WAVCIS,ioos:station:WAVCIS:CSI03:1,2011-12-05T10:00:00Z,29.4412,-92.0613,1010.63,11111222 
WAVCIS,ioos:station:WAVCIS:CSI03:1,2011-12-05T11:00:00Z,29.4412,-92.0613,1010.46,11111222 
WAVCIS,ioos:station:WAVCIS:CSI03:1,2011-12-05T12:00:00Z,29.4412,-92.0613,1010.38,11111222 
WAVCIS,ioos:station:WAVCIS:CSI03:1,2011-12-05T13:00:00Z,29.4412,-92.0613,1011.18,11111222 
WAVCIS,ioos:station:WAVCIS:CSI03:1,2011-12-05T14:00:00Z,29.4412,-92.0613,1011.9,11111222 
WAVCIS,ioos:station:WAVCIS:CSI03:1,2011-12-05T15:00:00Z,29.4412,-92.0613,1011.96,11111222 
WAVCIS,ioos:station:WAVCIS:CSI03:1,2011-12-05T16:00:00Z,29.4412,-92.0613,1011.87,11111222 
WAVCIS,ioos:station:WAVCIS:CSI03:1,2011-12-05T17:00:00Z,29.4412,-92.0613,1012.43,11111222 
WAVCIS,ioos:station:WAVCIS:CSI03:1,2011-12-05T18:00:00Z,29.4412,-92.0613,1012.37,11111222 
WAVCIS,ioos:station:WAVCIS:CSI03:1,2011-12-05T19:00:00Z,29.4412,-92.0613,1011.49,11111222 
WAVCIS,ioos:station:WAVCIS:CSI03:1,2011-12-05T20:00:00Z,29.4412,-92.0613,1010.99,11111222 
WAVCIS,ioos:station:WAVCIS:CSI03:1,2011-12-05T21:00:00Z,29.4412,-92.0613,1011.37,11111222 
WAVCIS,ioos:station:WAVCIS:CSI03:1,2011-12-05T22:00:00Z,29.4412,-92.0613,1011.45,11111222 
WAVCIS,ioos:station:WAVCIS:CSI03:1,2011-12-05T23:00:00Z,29.4412,-92.0613,1012.01,11111222 
WAVCIS,ioos:station:WAVCIS:CSI03:1,2011-12-06T00:00:00Z,29.4412,-92.0613,1012.47,11111222 
WAVCIS,ioos:station:WAVCIS:CSI03:1,2011-12-06T01:00:00Z,29.4412,-92.0613,1013.25,11111222 
WAVCIS,ioos:station:WAVCIS:CSI03:1,2011-12-06T02:00:00Z,29.4412,-92.0613,1013.86,11111222 
WAVCIS,ioos:station:WAVCIS:CSI03:1,2011-12-06T03:00:00Z,29.4412,-92.0613,1014.63,11111222 
WAVCIS,ioos:station:WAVCIS:CSI03:1,2011-12-06T04:00:00Z,29.4412,-92.0613,1014.76,11111222 
WAVCIS,ioos:station:WAVCIS:CSI03:1,2011-12-06T05:00:00Z,29.4412,-92.0613,1015.13,11111222 
WAVCIS,ioos:station:WAVCIS:CSI03:1,2011-12-06T06:00:00Z,29.4412,-92.0613,1015.62,11111222 
WAVCIS,ioos:station:WAVCIS:CSI03:1,2011-12-06T07:00:00Z,29.4412,-92.0613,1015.91,11111222 
WAVCIS,ioos:station:WAVCIS:CSI03:1,2011-12-06T08:00:00Z,29.4412,-92.0613,1016.31,11111222 
WAVCIS,ioos:station:WAVCIS:CSI03:1,2011-12-06T09:00:00Z,29.4412,-92.0613,1016.29,11111222 
WAVCIS,ioos:station:WAVCIS:CSI03:1,2011-12-06T10:00:00Z,29.4412,-92.0613,1016.39,11111222 
WAVCIS,ioos:station:WAVCIS:CSI03:1,2011-12-06T11:00:00Z,29.4412,-92.0613,1016.7,11111222 
WAVCIS,ioos:station:WAVCIS:CSI03:1,2011-12-06T12:00:00Z,29.4412,-92.0613,1016.93,11111222 
WAVCIS,ioos:station:WAVCIS:CSI03:1,2011-12-06T13:00:00Z,29.4412,-92.0613,1017.29,11111222 
WAVCIS,ioos:station:WAVCIS:CSI03:1,2011-12-06T14:00:00Z,29.4412,-92.0613,1017.51,11111222 
WAVCIS,ioos:station:WAVCIS:CSI03:1,2011-12-06T15:00:00Z,29.4412,-92.0613,1018.38,11111222 
WAVCIS,ioos:station:WAVCIS:CSI03:1,2011-12-06T16:00:00Z,29.4412,-92.0613,1019.49,11111222 
WAVCIS,ioos:station:WAVCIS:CSI03:1,2011-12-06T17:00:00Z,29.4412,-92.0613,1018.56,11111222 
WAVCIS,ioos:station:WAVCIS:CSI03:1,2011-12-06T18:00:00Z,29.4412,-92.0613,1018.39,11111222 
WAVCIS,ioos:station:WAVCIS:CSI03:1,2011-12-06T19:00:00Z,29.4412,-92.0613,1017.4,11111222 
WAVCIS,ioos:station:WAVCIS:CSI03:1,2011-12-06T20:00:00Z,29.4412,-92.0613,1017.5,11111222 
WAVCIS,ioos:station:WAVCIS:CSI03:1,2011-12-06T21:00:00Z,29.4412,-92.0613,1017.01,11111222 
WAVCIS,ioos:station:WAVCIS:CSI03:1,2011-12-06T22:00:00Z,29.4412,-92.0613,1017.23,11111222 
WAVCIS,ioos:station:WAVCIS:CSI03:1,2011-12-06T23:00:00Z,29.4412,-92.0613,1017.73,11111222 
WAVCIS,ioos:station:WAVCIS:CSI03:1,2011-12-07T00:00:00Z,29.4412,-92.0613,1018.16,11111222 
WAVCIS,ioos:station:WAVCIS:CSI03:1,2011-12-07T01:00:00Z,29.4412,-92.0613,1018.95,11111222 
WAVCIS,ioos:station:WAVCIS:CSI03:1,2011-12-07T02:00:00Z,29.4412,-92.0613,1019.85,11111222 
WAVCIS,ioos:station:WAVCIS:CSI03:1,2011-12-07T03:00:00Z,29.4412,-92.0613,1020.05,11111222 
WAVCIS,ioos:station:WAVCIS:CSI03:1,2011-12-07T04:00:00Z,29.4412,-92.0613,1020.23,11111222 
WAVCIS,ioos:station:WAVCIS:CSI03:1,2011-12-07T05:00:00Z,29.4412,-92.0613,1020.57,11111222 
WAVCIS,ioos:station:WAVCIS:CSI03:1,2011-12-07T06:00:00Z,29.4412,-92.0613,1020.81,11111222 
WAVCIS,ioos:station:WAVCIS:CSI03:1,2011-12-07T07:00:00Z,29.4412,-92.0613,1020.68,11111222 
WAVCIS,ioos:station:WAVCIS:CSI03:1,2011-12-07T08:00:00Z,29.4412,-92.0613,1021.09,11111222 
WAVCIS,ioos:station:WAVCIS:CSI03:1,2011-12-07T09:00:00Z,29.4412,-92.0613,1021.06,11111222 
WAVCIS,ioos:station:WAVCIS:CSI03:1,2011-12-07T10:00:00Z,29.4412,-92.0613,1021.49,11111222 
WAVCIS,ioos:station:WAVCIS:CSI03:1,2011-12-07T11:00:00Z,29.4412,-92.0613,1021.99,11111222 
WAVCIS,ioos:station:WAVCIS:CSI03:1,2011-12-07T12:00:00Z,29.4412,-92.0613,1022.99,11111222 
WAVCIS,ioos:station:WAVCIS:CSI03:1,2011-12-07T13:00:00Z,29.4412,-92.0613,1023.7,11111222 
WAVCIS,ioos:station:WAVCIS:CSI03:1,2011-12-07T14:00:00Z,29.4412,-92.0613,1024.42,11111222 
WAVCIS,ioos:station:WAVCIS:CSI03:1,2011-12-07T15:00:00Z,29.4412,-92.0613,1024.96,11111222 
WAVCIS,ioos:station:WAVCIS:CSI03:1,2011-12-07T16:00:00Z,29.4412,-92.0613,1025.52,11111222 
WAVCIS,ioos:station:WAVCIS:CSI03:1,2011-12-07T17:00:00Z,29.4412,-92.0613,1025.25,11111222 
WAVCIS,ioos:station:WAVCIS:CSI03:1,2011-12-07T18:00:00Z,29.4412,-92.0613,1024.48,11111222 
WAVCIS,ioos:station:WAVCIS:CSI03:1,2011-12-07T19:00:00Z,29.4412,-92.0613,1023.93,11111222 
WAVCIS,ioos:station:WAVCIS:CSI03:1,2011-12-07T20:00:00Z,29.4412,-92.0613,1023.34,11111222 
WAVCIS,ioos:station:WAVCIS:CSI03:1,2011-12-07T21:00:00Z,29.4412,-92.0613,1023.33,11111222 
WAVCIS,ioos:station:WAVCIS:CSI03:1,2011-12-07T22:00:00Z,29.4412,-92.0613,1023.42,11111222 
WAVCIS,ioos:station:WAVCIS:CSI03:1,2011-12-07T23:00:00Z,29.4412,-92.0613,1023.21,11111222 
WAVCIS,ioos:station:WAVCIS:CSI03:1,2011-12-08T00:00:00Z,29.4412,-92.0613,1023.62,11111222 
WAVCIS,ioos:station:WAVCIS:CSI03:1,2011-12-08T01:00:00Z,29.4412,-92.0613,1024.3,11111222 
WAVCIS,ioos:station:WAVCIS:CSI03:1,2011-12-08T02:00:00Z,29.4412,-92.0613,1024.43,11111222 
WAVCIS,ioos:station:WAVCIS:CSI03:1,2011-12-08T03:00:00Z,29.4412,-92.0613,1024.81,11111222 
WAVCIS,ioos:station:WAVCIS:CSI03:1,2011-12-08T04:00:00Z,29.4412,-92.0613,1024.96,11111222 
WAVCIS,ioos:station:WAVCIS:CSI03:1,2011-12-08T05:00:00Z,29.4412,-92.0613,1025.17,11111222 
WAVCIS,ioos:station:WAVCIS:CSI03:1,2011-12-08T06:00:00Z,29.4412,-92.0613,1024.78,11111222 
WAVCIS,ioos:station:WAVCIS:CSI03:1,2011-12-08T07:00:00Z,29.4412,-92.0613,1024.48,11111222 
WAVCIS,ioos:station:WAVCIS:CSI03:1,2011-12-08T08:00:00Z,29.4412,-92.0613,1024.3,11111222 
WAVCIS,ioos:station:WAVCIS:CSI03:1,2011-12-08T09:00:00Z,29.4412,-92.0613,1024.15,11111222 
WAVCIS,ioos:station:WAVCIS:CSI03:1,2011-12-08T10:00:00Z,29.4412,-92.0613,1024.07,11111222 
WAVCIS,ioos:station:WAVCIS:CSI03:1,2011-12-08T11:00:00Z,29.4412,-92.0613,1023.96,11111222 
WAVCIS,ioos:station:WAVCIS:CSI03:1,2011-12-08T12:00:00Z,29.4412,-92.0613,1024.39,11111222 
WAVCIS,ioos:station:WAVCIS:CSI03:1,2011-12-08T13:00:00Z,29.4412,-92.0613,1025.13,11111222 
WAVCIS,ioos:station:WAVCIS:CSI03:1,2011-12-08T14:00:00Z,29.4412,-92.0613,1025.5,11111222 
WAVCIS,ioos:station:WAVCIS:CSI03:1,2011-12-08T15:00:00Z,29.4412,-92.0613,1025.96,11111222 
WAVCIS,ioos:station:WAVCIS:CSI03:1,2011-12-08T16:00:00Z,29.4412,-92.0613,1026.4,11111222 
WAVCIS,ioos:station:WAVCIS:CSI03:1,2011-12-08T17:00:00Z,29.4412,-92.0613,1026.06,11111222 
WAVCIS,ioos:station:WAVCIS:CSI03:1,2011-12-08T18:00:00Z,29.4412,-92.0613,1024.63,11111222 
WAVCIS,ioos:station:WAVCIS:CSI03:1,2011-12-08T19:00:00Z,29.4412,-92.0613,1023.9,11111222 
WAVCIS,ioos:station:WAVCIS:CSI03:1,2011-12-08T20:00:00Z,29.4412,-92.0613,1022.73,11111222 
WAVCIS,ioos:station:WAVCIS:CSI03:1,2011-12-08T21:00:00Z,29.4412,-92.0613,1022.74,11111222 
WAVCIS,ioos:station:WAVCIS:CSI03:1,2011-12-08T22:00:00Z,29.4412,-92.0613,1021.83,11111222 
WAVCIS,ioos:station:WAVCIS:CSI03:1,2011-12-08T23:00:00Z,29.4412,-92.0613,1021.9,11111222 
WAVCIS,ioos:station:WAVCIS:CSI03:1,2011-12-09T00:00:00Z,29.4412,-92.0613,1021.65,11111222 
WAVCIS,ioos:station:WAVCIS:CSI03:1,2011-12-09T01:00:00Z,29.4412,-92.0613,1021.97,11111222 
WAVCIS,ioos:station:WAVCIS:CSI03:1,2011-12-09T02:00:00Z,29.4412,-92.0613,1022.19,11111222 
WAVCIS,ioos:station:WAVCIS:CSI03:1,2011-12-09T03:00:00Z,29.4412,-92.0613,1022.49,11111222 
WAVCIS,ioos:station:WAVCIS:CSI03:1,2011-12-09T04:00:00Z,29.4412,-92.0613,1022.75,11111222 
WAVCIS,ioos:station:WAVCIS:CSI03:1,2011-12-09T05:00:00Z,29.4412,-92.0613,1022.2,11111222 
WAVCIS,ioos:station:WAVCIS:CSI03:1,2011-12-09T06:00:00Z,29.4412,-92.0613,1021.81,11111222 
WAVCIS,ioos:station:WAVCIS:CSI03:1,2011-12-09T07:00:00Z,29.4412,-92.0613,1021.46,11111222 
WAVCIS,ioos:station:WAVCIS:CSI03:1,2011-12-09T08:00:00Z,29.4412,-92.0613,1021.3,11111222 
WAVCIS,ioos:station:WAVCIS:CSI03:1,2011-12-09T09:00:00Z,29.4412,-92.0613,1020.62,11111222 
WAVCIS,ioos:station:WAVCIS:CSI03:1,2011-12-09T10:00:00Z,29.4412,-92.0613,1021.09,11111222 
WAVCIS,ioos:station:WAVCIS:CSI03:1,2011-12-09T11:00:00Z,29.4412,-92.0613,1020.73,11111222 
WAVCIS,ioos:station:WAVCIS:CSI03:1,2011-12-09T12:00:00Z,29.4412,-92.0613,1020.7,11111222 
WAVCIS,ioos:station:WAVCIS:CSI03:1,2011-12-09T13:00:00Z,29.4412,-92.0613,1021.38,11111222 
WAVCIS,ioos:station:WAVCIS:CSI03:1,2011-12-09T14:00:00Z,29.4412,-92.0613,1021.94,11111222 
WAVCIS,ioos:station:WAVCIS:CSI03:1,2011-12-09T15:00:00Z,29.4412,-92.0613,1022.75,11111222 
WAVCIS,ioos:station:WAVCIS:CSI03:1,2011-12-09T16:00:00Z,29.4412,-92.0613,1023.32,11111222 
WAVCIS,ioos:station:WAVCIS:CSI03:1,2011-12-09T17:00:00Z,29.4412,-92.0613,1023.18,11111222 
WAVCIS,ioos:station:WAVCIS:CSI03:1,2011-12-09T18:00:00Z,29.4412,-92.0613,1022.8,11111222 
WAVCIS,ioos:station:WAVCIS:CSI03:1,2011-12-09T19:00:00Z,29.4412,-92.0613,1022.53,11111222 
WAVCIS,ioos:station:WAVCIS:CSI03:1,2011-12-09T20:00:00Z,29.4412,-92.0613,1022.11,11111222 
WAVCIS,ioos:station:WAVCIS:CSI03:1,2011-12-09T21:00:00Z,29.4412,-92.0613,1022.06,11111222 
WAVCIS,ioos:station:WAVCIS:CSI03:1,2011-12-09T22:00:00Z,29.4412,-92.0613,1021.92,11111222 
WAVCIS,ioos:station:WAVCIS:CSI03:1,2011-12-09T23:00:00Z,29.4412,-92.0613,1022.26,11111222 
WAVCIS,ioos:station:WAVCIS:CSI03:1,2011-12-10T00:00:00Z,29.4412,-92.0613,1023.05,11111222 
WAVCIS,ioos:station:WAVCIS:CSI03:1,2011-12-10T01:00:00Z,29.4412,-92.0613,1023.87,11111222 
WAVCIS,ioos:station:WAVCIS:CSI03:1,2011-12-10T02:00:00Z,29.4412,-92.0613,1025.02,11111222 
WAVCIS,ioos:station:WAVCIS:CSI03:1,2011-12-10T03:00:00Z,29.4412,-92.0613,1025.16,11111222 
WAVCIS,ioos:station:WAVCIS:CSI03:1,2011-12-10T04:00:00Z,29.4412,-92.0613,1025.83,11111222 
WAVCIS,ioos:station:WAVCIS:CSI03:1,2011-12-10T05:00:00Z,29.4412,-92.0613,1026.14,11111222 
WAVCIS,ioos:station:WAVCIS:CSI03:1,2011-12-10T06:00:00Z,29.4412,-92.0613,1025.9,11111222 
WAVCIS,ioos:station:WAVCIS:CSI03:1,2011-12-10T07:00:00Z,29.4412,-92.0613,1026.03,11111222 
WAVCIS,ioos:station:WAVCIS:CSI03:1,2011-12-10T08:00:00Z,29.4412,-92.0613,1026.15,11111222 
WAVCIS,ioos:station:WAVCIS:CSI03:1,2011-12-10T09:00:00Z,29.4412,-92.0613,1026.03,11111222 
WAVCIS,ioos:station:WAVCIS:CSI03:1,2011-12-10T10:00:00Z,29.4412,-92.0613,1025.98,11111222 
WAVCIS,ioos:station:WAVCIS:CSI03:1,2011-12-10T11:00:00Z,29.4412,-92.0613,1026.16,11111222 
WAVCIS,ioos:station:WAVCIS:CSI03:1,2011-12-10T12:00:00Z,29.4412,-92.0613,1026.42,11111222 
WAVCIS,ioos:station:WAVCIS:CSI03:1,2011-12-10T13:00:00Z,29.4412,-92.0613,1027.67,11111222 
WAVCIS,ioos:station:WAVCIS:CSI03:1,2011-12-10T14:00:00Z,29.4412,-92.0613,1028.53,11111222 
WAVCIS,ioos:station:WAVCIS:CSI03:1,2011-12-10T15:00:00Z,29.4412,-92.0613,1029.04,11111222 
WAVCIS,ioos:station:WAVCIS:CSI03:1,2011-12-10T16:00:00Z,29.4412,-92.0613,1029.62,11111222 
WAVCIS,ioos:station:WAVCIS:CSI03:1,2011-12-10T17:00:00Z,29.4412,-92.0613,1028.98,11111222 
WAVCIS,ioos:station:WAVCIS:CSI03:1,2011-12-10T18:00:00Z,29.4412,-92.0613,1028.06,11111222 
WAVCIS,ioos:station:WAVCIS:CSI03:1,2011-12-10T19:00:00Z,29.4412,-92.0613,1026.97,11111222 
WAVCIS,ioos:station:WAVCIS:CSI03:1,2011-12-10T20:00:00Z,29.4412,-92.0613,1026.0,11111222 
WAVCIS,ioos:station:WAVCIS:CSI03:1,2011-12-10T21:00:00Z,29.4412,-92.0613,1025.54,11111222 
WAVCIS,ioos:station:WAVCIS:CSI03:1,2011-12-10T22:00:00Z,29.4412,-92.0613,1025.49,11111222 
WAVCIS,ioos:station:WAVCIS:CSI03:1,2011-12-10T23:00:00Z,29.4412,-92.0613,1025.77,11111222 
WAVCIS,ioos:station:WAVCIS:CSI03:1,2011-12-11T00:00:00Z,29.4412,-92.0613,1026.01,11111222 
WAVCIS,ioos:station:WAVCIS:CSI03:1,2011-12-11T01:00:00Z,29.4412,-92.0613,1026.34,11111222 
WAVCIS,ioos:station:WAVCIS:CSI03:1,2011-12-11T02:00:00Z,29.4412,-92.0613,1026.55,11111222 
WAVCIS,ioos:station:WAVCIS:CSI03:1,2011-12-11T03:00:00Z,29.4412,-92.0613,1026.97,11111222 
WAVCIS,ioos:station:WAVCIS:CSI03:1,2011-12-11T04:00:00Z,29.4412,-92.0613,1027.26,11111222 
WAVCIS,ioos:station:WAVCIS:CSI03:1,2011-12-11T05:00:00Z,29.4412,-92.0613,1027.35,11111222 
WAVCIS,ioos:station:WAVCIS:CSI03:1,2011-12-11T06:00:00Z,29.4412,-92.0613,1027.02,11111222 
WAVCIS,ioos:station:WAVCIS:CSI03:1,2011-12-11T07:00:00Z,29.4412,-92.0613,1026.31,11111222 
WAVCIS,ioos:station:WAVCIS:CSI03:1,2011-12-11T08:00:00Z,29.4412,-92.0613,1026.52,11111222 
WAVCIS,ioos:station:WAVCIS:CSI03:1,2011-12-11T09:00:00Z,29.4412,-92.0613,1026.68,11111222 
WAVCIS,ioos:station:WAVCIS:CSI03:1,2011-12-11T10:00:00Z,29.4412,-92.0613,1026.69,11111222 
WAVCIS,ioos:station:WAVCIS:CSI03:1,2011-12-11T11:00:00Z,29.4412,-92.0613,1026.35,11111222 
WAVCIS,ioos:station:WAVCIS:CSI03:1,2011-12-11T12:00:00Z,29.4412,-92.0613,1025.92,11111222 
WAVCIS,ioos:station:WAVCIS:CSI03:1,2011-12-11T13:00:00Z,29.4412,-92.0613,1024.98,11111222 
WAVCIS,ioos:station:WAVCIS:CSI03:1,2011-12-11T14:00:00Z,29.4412,-92.0613,1026.56,11111222 
WAVCIS,ioos:station:WAVCIS:CSI03:1,2011-12-11T15:00:00Z,29.4412,-92.0613,1026.49,11111222 
WAVCIS,ioos:station:WAVCIS:CSI03:1,2011-12-11T16:00:00Z,29.4412,-92.0613,1026.35,11111222 
WAVCIS,ioos:station:WAVCIS:CSI03:1,2011-12-11T17:00:00Z,29.4412,-92.0613,1026.4,11111222 
WAVCIS,ioos:station:WAVCIS:CSI03:1,2011-12-11T18:00:00Z,29.4412,-92.0613,1025.84,11111222 
WAVCIS,ioos:station:WAVCIS:CSI03:1,2011-12-11T19:00:00Z,29.4412,-92.0613,1024.35,11111222 
WAVCIS,ioos:station:WAVCIS:CSI03:1,2011-12-11T20:00:00Z,29.4412,-92.0613,1023.69,11111222 
WAVCIS,ioos:station:WAVCIS:CSI03:1,2011-12-11T21:00:00Z,29.4412,-92.0613,1023.35,11111222 
WAVCIS,ioos:station:WAVCIS:CSI03:1,2011-12-11T22:00:00Z,29.4412,-92.0613,1022.94,11111222 